[[{"header":{"parameterUnit":"m.s-1","parameterCategory":1,"la1":30.2991,"la2":30.254,"lo1":-89.0895,"lo2":-89.0444,"dy":0.0017,"dx":0.0017,"nx":28,"ny":28,"refTime":"2023-08-27T09:00:00:Z","depth":0,"parameterNumber":2,"parameterNumberName":"U-component_of_WINDS"},"data":[0,0,0,0,0,0,0,0,0,0,0,0,0,0,0,0,0,0,0,0,0,0,0,0,0,0,0,0,0,0,0,0,0,0,0,0,0,0,0,0,0,0,0,0,0,0,0,0,0,0,0,0,0,0,0,0,0,0,1.4614,1.4613,0,1.4515,1.4514,1.4513,1.4432,1.4431,1.443,1.4429,1.4327,1.4325,1.4323,0,0,0,0,0,0,0,0,0,0,0,0,0,1.4731,1.4729,1.4615,1.4613,1.4612,1.4515,1.4514,1.4513,1.4432,1.4431,1.443,1.4429,1.4327,1.4325,1.4323,0,0,0,0,0,0,0,0,0,0,0,0,0,1.4661,1.4729,1.4615,1.456,1.4554,1.4516,1.4514,1.4512,1.4432,1.4431,1.443,1.4428,1.4328,1.4325,1.4322,1.433,0,0,1.4313,1.4312,0,0,0,0,0,0,0,0,1.4665,1.4657,1.4569,1.4564,1.4557,1.4485,1.4517,1.4451,1.4432,1.4478,1.4429,1.4428,1.438,1.4373,1.4357,1.4325,1.432,1.4313,1.4311,1.431,1.4309,0,0,0,0,0,0,0,1.467,1.4661,1.4575,1.4568,1.4561,1.4539,1.4528,1.4504,1.4438,1.4474,1.4468,1.4458,1.4376,1.436,1.4354,1.4319,1.4313,1.4311,1.4309,1.4308,1.4283,1.4285,0,0,0,0,0,0,1.4684,1.4665,1.4578,1.4572,1.4609,1.4538,1.4526,1.4509,1.4438,1.4425,1.4459,1.4454,1.4366,1.4357,1.435,1.4351,1.431,1.4307,1.4306,1.4282,1.4284,1.4285,0,0,0,0,0,0,1.4686,1.4677,1.4582,1.4617,1.4603,1.4538,1.452,1.4508,1.4491,1.4426,1.4413,1.4454,1.4364,1.4354,1.4334,1.4346,1.4306,1.4303,1.4281,1.4283,1.4284,1.4355,0,0,0,0,0,0,1.469,1.4678,1.4681,1.4618,1.4602,1.457,1.4521,1.4507,1.4486,1.448,1.4418,1.4407,1.4362,1.4339,1.4332,1.4342,1.4301,1.428,1.4282,1.4284,1.4351,1.4359,1.4365,0,0,0,0,0,1.4695,1.4706,1.4682,1.4672,1.4604,1.4571,1.4561,1.451,1.4488,1.4489,1.4447,1.4409,1.4347,1.4338,1.4329,1.4338,1.4279,1.4281,1.4284,1.4348,1.4357,1.4365,0,0,0,0,0,0,1.4773,1.4696,1.4669,1.466,1.4622,1.4557,1.4558,1.4522,1.449,1.4485,1.4422,1.4409,1.4395,1.4365,1.4356,1.4339,1.4307,1.4308,1.436,1.4368,1.4375,1.4382,1.4299,0,0,0,0,0,1.4789,1.4769,1.4703,1.4701,1.4684,1.4624,1.4608,1.4571,1.4529,1.4513,1.4469,1.4429,1.44,1.4383,1.4353,1.4347,1.4331,1.4348,1.4355,1.4362,1.4362,1.4353,1.436,1.4293,1.4293,1.4293,0,0,1.4822,1.4778,1.4769,1.4716,1.4682,1.4661,1.4611,1.4592,1.4575,1.451,1.4488,1.4454,1.4405,1.4392,1.4384,1.4366,1.4377,1.4365,1.437,1.4367,1.4357,1.4363,1.4369,1.4295,1.4294,1.4294,0,0,1.4872,1.4837,1.483,1.4797,1.4747,1.4707,1.4705,1.4644,1.4619,1.4596,1.4546,1.4525,1.4477,1.4443,1.442,1.4454,1.4416,1.4446,1.4482,1.4474,1.448,1.4484,1.4493,1.4497,1.4447,1.4448,1.4448,0,1.4919,1.4886,1.4832,1.4814,1.4791,1.4731,1.4722,1.4692,1.4635,1.4619,1.4601,1.4537,1.4501,1.4476,1.4484,1.4469,1.4463,1.4452,1.4483,1.4487,1.449,1.4498,1.4502,1.4451,1.4451,1.445,1.445,0,1.4945,1.4923,1.4924,1.4868,1.4845,1.4833,1.4775,1.4758,1.4723,1.4684,1.466,1.4614,1.4571,1.4563,1.453,1.4534,1.4524,1.4495,1.4462,1.4501,1.4507,1.451,1.4457,1.4455,1.4454,1.4453,0,0,1.5042,1.4955,1.4956,1.4929,1.4868,1.4849,1.4832,1.4791,1.4776,1.4738,1.4721,1.4681,1.4653,1.4626,1.4588,1.4581,1.4607,1.4553,1.455,1.4562,1.4605,1.4626,1.463,1.4583,1.4583,1.4583,1.4608,0,1.508,1.5047,1.4996,1.4979,1.4956,1.4897,1.4882,1.4842,1.4805,1.4779,1.4738,1.4709,1.4676,1.4659,1.465,1.4606,1.4615,1.4604,1.4564,1.4563,1.4576,1.4634,1.4656,1.4682,1.4611,1.4611,1.4611,0,1.5119,1.5083,1.5064,1.5002,1.499,1.4978,1.4934,1.4911,1.4863,1.4836,1.4806,1.4764,1.4741,1.4712,1.4678,1.4672,1.4652,1.4628,1.4627,1.462,1.4589,1.4626,1.4689,1.4693,1.4615,1.4615,1.4615,0,1.5188,1.5135,1.5116,1.5095,1.5022,1.5014,1.4984,1.4935,1.4912,1.4874,1.4858,1.4818,1.4796,1.4765,1.4712,1.4696,1.4683,1.465,1.4658,1.4659,1.4657,1.4658,1.4716,1.4648,1.4648,1.4648,1.4648,0,1.5234,1.5224,1.5145,1.5133,1.5119,1.506,1.5048,1.5012,1.4968,1.4947,1.4894,1.4875,1.4807,1.478,1.4738,1.4715,1.4706,1.4682,1.4671,1.4686,1.4688,1.4671,1.4667,1.4649,1.4649,1.4649,1.4649,0,1.5309,1.5256,1.523,1.5163,1.5146,1.5138,1.508,1.5065,1.5024,1.4998,1.4988,1.4924,1.4888,1.4833,1.4781,1.4753,1.4736,1.4719,1.4752,1.4745,1.4755,1.4754,1.4803,1.4805,1.4739,1.474,1.474,0,1.5341,1.5331,1.5263,1.5244,1.5215,1.5187,1.5163,1.5104,1.5081,1.5025,1.5016,1.4976,1.4941,1.4887,1.4835,1.4794,1.4774,1.4794,1.4768,1.4782,1.4771,1.4772,1.4769,1.48,1.4801,1.4801,1.4802,0,1.5402,1.5376,1.5344,1.5302,1.5275,1.5239,1.52,1.5188,1.512,1.5097,1.506,1.5033,1.4979,1.4939,1.4891,1.4857,1.4817,1.4811,1.481,1.4824,1.4843,1.483,1.4766,1.481,1.4809,1.4808,1.4808,1.4808,1.5454,1.5442,1.5391,1.5356,1.5321,1.5285,1.5267,1.5224,1.5192,1.5143,1.511,1.5074,1.5024,1.4954,1.4923,1.4893,1.4876,1.4876,1.4875,1.4875,1.488,1.4849,1.4884,1.4884,1.4884,1.4883,1.4883,0,1.5511,1.5475,1.5443,1.539,1.5362,1.5328,1.5283,1.5261,1.523,1.5187,1.5153,1.5108,1.5069,1.5013,1.4969,1.4955,1.4936,1.4946,1.4945,1.4937,1.4899,1.4903,1.4962,1.4962,1.4962,1.4962,1.4962,1.4962,1.5537,1.5513,1.5481,1.5438,1.5401,1.5365,1.5342,1.5308,1.5273,1.5226,1.5193,1.5157,1.5107,1.5059,1.502,1.5004,1.499,1.5005,1.4983,1.4948,1.4941,1.4934,1.4937,1.5002,1.5002,1.5024,1.5024,1.5024]},{"header":{"parameterUnit":"m.s-1","parameterCategory":1,"la1":30.2991,"la2":30.254,"lo1":-89.0895,"lo2":-89.0444,"dy":0.0017,"dx":0.0017,"nx":28,"ny":28,"refTime":"2023-08-27T09:00:00:Z","depth":0,"parameterNumber":3,"parameterNumberName":"V-component_of_WINDS"},"data":[0,0,0,0,0,0,0,0,0,0,0,0,0,0,0,0,0,0,0,0,0,0,0,0,0,0,0,0,0,0,0,0,0,0,0,0,0,0,0,0,0,0,0,0,0,0,0,0,0,0,0,0,0,0,0,0,0,0,2.9521,2.9521,0,2.9584,2.9584,2.9585,2.9581,2.9581,2.958,2.9579,2.9636,2.9638,2.9641,0,0,0,0,0,0,0,0,0,0,0,0,0,2.9389,2.9391,2.9521,2.9521,2.9522,2.9583,2.9584,2.9585,2.9582,2.9581,2.9579,2.9578,2.9635,2.9638,2.9641,0,0,0,0,0,0,0,0,0,0,0,0,0,2.9448,2.9392,2.952,2.9528,2.9529,2.9583,2.9584,2.9585,2.9582,2.9581,2.9579,2.9578,2.9634,2.9638,2.9641,2.969,0,0,2.9652,2.9654,0,0,0,0,0,0,0,0,2.9445,2.9453,2.9526,2.9528,2.9529,2.9574,2.9559,2.962,2.9582,2.9562,2.9579,2.9577,2.9616,2.9621,2.9635,2.9692,2.9695,2.9652,2.9655,2.9656,2.9657,0,0,0,0,0,0,0,2.9441,2.945,2.9545,2.9527,2.9529,2.9525,2.9532,2.957,2.9595,2.9563,2.9563,2.9571,2.9616,2.9632,2.9637,2.9696,2.9652,2.9655,2.9658,2.9659,2.9793,2.9794,0,0,0,0,0,0,2.9436,2.9447,2.9543,2.9547,2.9483,2.9529,2.9537,2.956,2.9595,2.9599,2.9572,2.9571,2.9627,2.9632,2.9639,2.9696,2.9656,2.9659,2.9661,2.9791,2.9793,2.9794,0,0,0,0,0,0,2.9433,2.9445,2.9541,2.9497,2.9509,2.9533,2.9559,2.9562,2.9578,2.9602,2.9605,2.9584,2.9626,2.9634,2.9677,2.9698,2.9661,2.9664,2.9789,2.9792,2.9794,2.9811,0,0,0,0,0,0,2.943,2.9444,2.9464,2.9498,2.9511,2.958,2.9561,2.9565,2.9585,2.9584,2.9614,2.9617,2.9625,2.9672,2.968,2.9702,2.9667,2.9788,2.979,2.9793,2.9809,2.9814,2.9818,0,0,0,0,0,2.9425,2.9466,2.9466,2.9477,2.9538,2.9582,2.9589,2.96,2.9587,2.9606,2.9621,2.9616,2.9694,2.9676,2.9686,2.9709,2.9786,2.979,2.9793,2.9807,2.9813,2.9818,0,0,0,0,0,0,2.9432,2.947,2.947,2.9524,2.955,2.9581,2.9606,2.9606,2.9634,2.9631,2.9641,2.9648,2.9691,2.9704,2.9683,2.9756,2.9738,2.9744,2.9746,2.9751,2.9756,2.9751,2.967,0,0,0,0,0,2.944,2.9475,2.9506,2.955,2.9563,2.9582,2.9602,2.9608,2.9634,2.9644,2.9662,2.9685,2.9715,2.9734,2.9763,2.9811,2.9816,2.9831,2.9836,2.984,2.9843,2.9867,2.9874,2.9805,2.9805,2.9805,0,0,2.9457,2.9482,2.9503,2.9552,2.9573,2.9605,2.9591,2.9627,2.9651,2.9649,2.9691,2.9705,2.9731,2.9777,2.9798,2.9789,2.9864,2.9844,2.9846,2.9848,2.9871,2.9878,2.9884,2.9807,2.9807,2.9807,0,0,2.9503,2.9528,2.9566,2.9587,2.962,2.9632,2.9641,2.9673,2.9682,2.9725,2.9724,2.975,2.9802,2.982,2.9836,2.9889,2.9885,2.9898,2.9921,2.9944,2.9949,2.9954,2.9971,2.9977,2.9902,2.9902,2.9902,0,2.9519,2.9572,2.9585,2.9621,2.9641,2.9643,2.968,2.9699,2.9738,2.9751,2.9741,2.9805,2.9823,2.9872,2.9885,2.9899,2.9907,2.9894,2.9948,2.9953,2.9958,2.9973,2.998,2.9903,2.9903,2.9903,2.9903,0,2.9588,2.9624,2.965,2.969,2.9713,2.975,2.9766,2.9787,2.9791,2.9803,2.9845,2.9867,2.99,2.9912,2.9915,2.996,2.9954,2.9947,2.9928,2.9965,2.998,2.9986,2.9905,2.9905,2.9904,2.9904,0,0,2.964,2.9687,2.9696,2.9714,2.9749,2.9776,2.9811,2.9844,2.9861,2.9888,2.9915,2.9959,2.9952,2.997,2.9975,2.9996,3.0033,2.9985,2.9986,2.9992,3.0081,3.0086,3.0093,3.0031,3.0033,3.0034,3.0078,0,2.9689,2.9754,2.9767,2.9822,2.9853,2.9855,2.9885,2.9908,2.9921,2.9947,2.996,2.999,2.998,2.999,3.0011,3.0024,3.0051,3.0021,3.0054,3.0055,3.0046,3.0101,3.0105,3.0147,3.0085,3.0086,3.0086,0,2.9754,2.9784,2.9843,2.9873,2.9887,2.9914,2.9945,2.9971,2.9997,3.0004,3.0024,3.0027,3.006,3.0042,3.0087,3.0067,3.0081,3.0089,3.0091,3.0092,3.0072,3.0102,3.016,3.0166,3.0096,3.0095,3.0095,0,2.9784,2.9839,2.9881,2.9896,2.9932,2.9951,2.9966,2.9991,3.0009,3.0036,3.0047,3.0076,3.0092,3.0113,3.0122,3.0109,3.0165,3.0148,3.017,3.0169,3.018,3.0179,3.024,3.0193,3.0192,3.0192,3.0192,0,2.9836,2.9871,2.9895,2.992,2.9959,2.9972,3.0009,3.0023,3.0045,3.0071,3.0074,3.0098,3.011,3.0135,3.0142,3.0176,3.0184,3.0188,3.0189,3.0187,3.0186,3.0195,3.0192,3.0194,3.0194,3.0193,3.0193,0,2.9875,2.9892,2.9938,2.9969,2.9977,3.0004,3.0029,3.0052,3.0065,3.0098,3.0106,3.0125,3.0154,3.0166,3.0202,3.0207,3.0245,3.0245,3.0237,3.0237,3.0257,3.0254,3.0324,3.0333,3.0282,3.0282,3.0283,0,2.9906,2.9933,2.9967,2.9986,3.0003,3.0033,3.0053,3.0066,3.0085,3.0116,3.0135,3.0165,3.0189,3.0236,3.0251,3.0277,3.0277,3.0299,3.028,3.0277,3.0274,3.0272,3.0273,3.0302,3.0303,3.0303,3.0303,0,2.9958,2.9965,2.9995,3.0027,3.0051,3.0076,3.01,3.0115,3.0131,3.0153,3.0184,3.0203,3.024,3.0269,3.0296,3.0309,3.0308,3.0309,3.0315,3.0312,3.0306,3.0307,3.0245,3.0307,3.0307,3.0307,3.0306,3.0306,2.9993,3.0016,3.0044,3.0076,3.0096,3.0119,3.0142,3.0158,3.0185,3.0217,3.0222,3.0255,3.0277,3.0315,3.0329,3.0353,3.0347,3.0356,3.0358,3.0359,3.036,3.0304,3.0358,3.0358,3.0358,3.0358,3.0358,0,3.0043,3.0061,3.0091,3.0126,3.015,3.015,3.0176,3.0196,3.0225,3.0248,3.0272,3.0307,3.0334,3.0352,3.0379,3.0395,3.0395,3.0401,3.0399,3.0401,3.0365,3.0356,3.0401,3.0401,3.0401,3.0401,3.0401,3.0401,3.0072,3.0112,3.0122,3.017,3.0187,3.0221,3.0236,3.0256,3.0274,3.0313,3.0337,3.0349,3.0368,3.0397,3.0421,3.0425,3.0434,3.0441,3.0444,3.0409,3.0404,3.04,3.0392,3.0443,3.0443,3.0479,3.0479,3.0479]}]]